Location: Greenwich
(51.4790°N, 0.0090°E)
Time: 00:27:48
(UTC+01:00)

Transit 2A - Pass Details

Date: 29 April 2024
Orbit: 594 x 957 km, 66.7° (Epoch: 19 May)

Event Time Altitude Azimuth Distance (km) Brightness Sun altitude
Rises 03:59:28 0° 158° (SSE) 2,862 8.7 -13.0°
Reaches altitude 10° 04:02:56 10° 128° (SE) 2,011 8.3 -12.6°
Maximum altitude 04:04:48 12° 104° (ESE) 1,887 8.5 -12.4°
Drops below altitude 10° 04:06:42 10° 79° (E) 2,086 9.2 -12.2°
Sets 04:10:26 0° 51° (NE) 3,090 11.3 -11.8°
